Regional Weather Roundup
Issued by NWS

Home | Current Version | Previous Version | Graphics & Text | Print | Product List | Glossary On
Versions: 1 2 3 4 5 6 7 8 9 10 11 12 13 14 15 16 17 18 19 20 21 22 23 24 25 26 27 28 29 30 31 32 33 34 35 36 37 38 39 40 41 42 43 44 45 46 47 48 49 50
000
ASUS45 KBOU 270107
RWRCO

WEATHER ROUNDUP FOR COLORADO
NATIONAL WEATHER SERVICE DENVER/BOULDER CO
600 PM MST THU FEB 26 2015

NOTE: "FAIR" INDICATES FEW OR NO CLOUDS BELOW 12000 FEET WITH NO
SIGNIFICANT WEATHER AND/OR OBSTRUCTIONS TO VISIBILITY.

COZ001>005-013-030-031-270200-
...NORTHWEST COLORADO...

CITY           SKY/WX    TMP DP  RH WIND       PRES   REMARKS
CRAIG          LGT SNOW  27  23  85 SE3       29.87R FOG
HAYDEN         CLOUDY    25  19  80 SE7       29.85S WCI  17
MEEKER         LGT SNOW  29  25  85 CALM      29.84S FOG
MOUNT WERNER   NOT AVBL
STEAMBOAT SPGS CLOUDY    23  15  70 CALM      29.84S
WALDEN         CLOUDY    14   9  79 N8        29.83S WCI   3
$$

COZ006>008-011-270200-
...WEST CENTRAL VALLEYS...

CITY           SKY/WX    TMP DP  RH WIND       PRES   REMARKS
GRAND JUNCTION CLOUDY    40  16  37 CALM      29.84S
MONTROSE       CLOUDY    32  20  61 CALM      29.87S
EAGLE          CLOUDY    30  21  69 SW10      29.84S WCI  21
RIFLE          CLOUDY    37  18  46 W13       29.84R
DELTA          CLOUDY    36  29  75 CALM      29.87S
NUCLA          CLOUDY    34  23  64 W12       29.90R WCI  25
$$

COZ017>023-064>068-270200-
...SOUTHWEST COLORADO...

CITY           SKY/WX    TMP DP  RH WIND       PRES   REMARKS
DURANGO        CLOUDY    34  19  54 NW5       29.86S WCI  30
CORTEZ         LGT SNOW  31  30  96 CALM      29.88S VSB 3/4
PAGOSA SPRINGS CLOUDY    32  17  53 W5        29.86F WCI  27
TELLURIDE      CLOUDY    25  14  64 CALM      29.84S
WOLF CREEK PAS CLOUDY    10  10 100 SW30G37   29.83S FOG     WCI -12
$$

COZ009-010-012-014-032>034-037-058>063-270200-
...CENTRAL COLORADO...

CITY           SKY/WX    TMP DP  RH WIND       PRES   REMARKS
ASPEN          CLOUDY    24  19  81 CALM      29.81S HAZE
BUENA VISTA    CLOUDY    17  11  80 E15       29.86R WCI   2
COPPER MTN     CLOUDY    14   7  73 SW8G22    29.74S HAZE    WCI   3
BERTHOUD PASS  LGT SNOW   1  -4  78 W6        29.73R VSB 3/4 WCI -10
COTTONWOOD PAS LGT SNOW  18  14  86 NE3       29.79S
GUNNISON       CLOUDY    25  10  54 CALM      29.87S
KREMMLING      SNOW      21  18  86 SW6       29.85S VSB 1/2 WCI  14
LEADVILLE      LGT SNOW  16  11  80 CALM      29.77R
MONARCH PASS   CLOUDY    10   5  79 MISG      29.87S
SALIDA         CLOUDY    15   8  73 SE23G30   29.96R WCI  -4
SUNLIGHT       SNOW      18  14  86 CALM        N/A  VSB 1/4
WILKERSON PASS LGT SNOW   3   0  85 S5        29.78S VSB 1   WCI  -6
$$

COZ069>075-270200-
...SAN LUIS VALLEY/SANGRE DE CRISTO MOUNTAINS...

CITY           SKY/WX    TMP DP  RH WIND       PRES   REMARKS
ALAMOSA        CLOUDY    25  18  74 NW7       29.84R WCI  17
LA VETA PASS   SNOW       1  -2  85 N7        29.83R VSB 1/2 WCI -11
SAGUACHE       LGT SNOW  23  21  93 N8        29.86S WCI  14
$$

COZ035-036-038>040-270200-
...NORTHERN COLORADO FRONT RANGE...

CITY           SKY/WX    TMP DP  RH WIND       PRES   REMARKS
DENVER INTL AP LGT SNOW  14  11  87 E16       30.12R VSB 1   WCI  -2
DMNS CITY PARK   N/A     15  13  92 NE8       30.12R WCI   4
AURORA         NOT AVBL
FRONT RANGE AP NOT AVBL
ERIE MUNI ARPT LGT SNOW  16  13  89 E9        30.14S WCI   4
BOULDER MUN AP LGT SNOW  16  14  93 N5        30.13S VSB 3/4 WCI   9
CENTENNIAL     LGT SNOW  13  10  88 NE8       30.06S VSB 3/4 WCI   2
BROOMFIELD     SNOW      16  12  86 NE7       30.11R VSB 1/2 WCI   6
FORT COLLINS   CLOUDY    14  10  85 E12       30.17R WCI   0
LONGMONT       LGT SNOW  18  13  84 E9        30.18R WCI   6
$$

COZ041-046-047-076>085-087-088-270200-
...PIKES PEAK/PALMER DIVIDE AND SOUTHERN FOOTHILLS...

CITY           SKY/WX    TMP DP  RH WIND       PRES   REMARKS
COLO. SPRINGS  LGT SNOW  11   8  88 SE12      30.09R VSB 3/4 WCI  -3
A. F. ACADEMY  LGT SNOW   9   5  85 SE14      30.05R WCI  -8
ELLICOTT       NOT AVBL
FALCON         LGT SNOW   7   4  87 SE7       30.05R WCI  -5
FORT CARSON    NOT AVBL
LIMON          LGT SNOW  12   9  87 S10       30.15R FOG     WCI  -1
MONUMENT HILL  LGT SNOW   9   3  78 S10       30.00R WCI  -6
TRINIDAD       CLOUDY    19  15  84 NE9       30.04R WCI   8
$$

COZ042>045-048>051-090-091-270200-
...NORTHEAST COLORADO...

CITY           SKY/WX    TMP DP  RH WIND       PRES   REMARKS
GREELEY ARPT   CLOUDY    16   7  67 E15       30.18R WCI   1
AKRON          CLOUDY    12   9  87 E7        30.21R WCI   1
BURLINGTON     CLOUDY    16   7  67 E10       30.26R WCI   4
WRAY           CLOUDY    18  10  69 CALM      30.30S
STERLING       LGT SNOW  18  12  79 E3        30.26R
HOLYOKE        NOT AVBL
FORT MORGAN    CLOUDY    15  10  80 E12       30.22R WCI   2
$$

COZ086-089-092>099-270200-
...SOUTHEAST COLORADO...

CITY           SKY/WX    TMP DP  RH WIND       PRES   REMARKS
PUEBLO         LGT SNOW  16  12  84 E16       30.17R FOG     WCI   1
LA JUNTA       FLURRIES  18  12  77 E16       30.21R WCI   3
LAMAR          LGT SNOW  17  13  84 E12       30.27R FOG     WCI   4
SPRINGFIELD      N/A     14  11  87 E12       30.22R WCI   0
$$


USA.gov is the U.S. government's official web portal to all federal, state and local government web resources and services.